Hourly Data Report for December 17, 2017

VICTORIA UNIVERSITY CS
BRITISH COLUMBIA

48°27'25.200" N
123°18'16.600" W
60.10 m
1018598
71783
WYJ

Download Data

Hourly Data (December 2017)
Hourly Data Report for December 17, 2017
TIME
LST
Temp Definition
°C
Dew Point Definition
°C
Rel Hum Definition
%
Precip. Amount Definition
mm

Wind Dir Definition
10's deg

Wind Spd Definition
km/h
Visibility Definition
km
Stn Press Definition
kPa
Hmdx Definition


Wind Chill Definition


Weather Definition


00:00 6.0 5.4 96 0.0 11 1   101.46     LegendNANA
01:00 6.2 5.7 96 0.2 11 1   101.38     LegendNANA
02:00 6.2 5.6 96 0.3 11 2   101.33     LegendNANA
03:00 6.7 5.8 94 0.2 15 5   101.29     LegendNANA
04:00 6.8 5.9 94 0.0 7 1   101.26     LegendNANA
05:00 6.5 5.9 96 0.9 0 1   101.20     LegendNANA
06:00 6.5 5.9 96 0.2 13 3   101.10     LegendNANA
07:00 6.3 5.4 94 0.0 12 2   101.07     LegendNANA
08:00 6.4 5.6 95 0.0 12 3   101.05     LegendNANA
09:00 6.7 6.3 97 0.8 12 2   101.07     LegendNANA
10:00 7.0 6.4 96 0.0 13 3   101.04     LegendNANA
11:00 7.4 6.7 95 0.0 15 3   100.98     LegendNANA
12:00 7.5 6.7 95 0.0 15 6   100.89     LegendNANA
13:00 7.5 6.9 96 0.2 15 5   100.82     LegendNANA
14:00 7.7 7.1 96 0.0 15 3   100.73     LegendNANA
15:00 7.8 7.3 97 0.2 16 4   100.65     LegendNANA
16:00 8.2 7.7 97 0.8 16 7   100.59     LegendNANA
17:00 8.0 7.6 97 1.2 16 6   100.53     LegendNANA
18:00 7.7 7.4 98 0.8 17 9   100.50     LegendNANA
19:00 7.6 7.2 98 1.7 17 5   100.53     LegendNANA
20:00 8.5 8.1 98 2.0 18 5   100.52     LegendNANA
21:00 9.3 6.1 80 0.7 23 16   100.49     LegendNANA
22:00 8.6 6.8 88 0.2 24 13   100.46     LegendNANA
23:00 9.1 7.9 92 0.2 24 11   100.50     LegendNANA

Notes on Data Quality.

Legend

  • E = Estimated
  • M = Missing
  • NA = Not Available*
  • [empty] = Indicates an unobserved value
Date modified: